User: anonymous   Login
Location: Caltech
(34.1382°N, 118.1253°W)
Time: 08:33:51
(UTC-08:00)
Language:

Cosmos 1833 - Orbit

View from above orbital plane
View from above orbital plane
View from above satellite
View from above satellite

Ground track
Ground track

The orbit data is extracted from the following two-line orbital elements,

1 17589U 87027A   16340.14537777 -.00000205  00000-0 -83988-4 0  9998
2 17589  70.9218 232.5132 0028498 252.6425 107.1578 14.12892432532896
Epoch (UTC): 05 December 2016 03:29:20
Eccentricity: 0.0028498
inclination: 70.9218°
perigee height: 829 km
apogee height: 870 km
right ascension of ascending node: 232.5132°
argument of perigee: 252.6425°
revolutions per day: 14.12892432
mean anomaly at epoch: 107.1578°
orbit number at epoch: 53289

The dashed part of the orbit path shows where the satellite is in the earth's shadow,  

DLR